QPF
0.01 0.00 0.00 0.00 0.00 0.00 0.00 0.00 0.00 0.00 0.00 0.00 0.00 0.00 0.00 0.00 0.00 0.00 0.00 0.00 0.00 0.00 0.00 0.00 0.00 0.00 0.00 0.00 0.00 0.00 0.00 0.00 0.00
0.02 0.00 0.00 0.00 0.00 0.00 0.00 0.00 0.00 0.00 0.00 0.00 0.00 0.00 0.00 0.00 0.00 0.00 0.00 0.00 0.00 0.00 0.00 0.00 0.00 0.00 0.00 0.00 0.00 0.00 0.00 0.00 0.00
0.01 0.00 0.00 0.00 0.00 0.00 0.00 0.00 0.00 0.00 0.00 0.00 0.00 0.00 0.00 0.00 0.00 0.00 0.00 0.00 0.00 0.00 0.00 0.00 0.00 0.00 0.00 0.00 0.00 0.00 0.00 0.00 0.00
0.00 0.00 0.00 0.00 0.00 0.00 0.00 0.00 0.00 0.00 0.00 0.00 0.00 0.00 0.00 0.00 0.00 0.00 0.00 0.00 0.00 0.00 0.00 0.00 0.00 0.00 0.00 0.00 0.00 0.00 0.00 0.00 0.00
0.00 0.00 0.00 0.00 0.00 0.00 0.00 0.00 0.00 0.00 0.00 0.00 0.00 0.00 0.00 0.00 0.00 0.00 0.00 0.00 0.00 0.00 0.00 0.00 0.00 0.00 0.00 0.00 0.00 0.00 0.00 0.00 0.00
0.00 0.00 0.00 0.00 0.00 0.00 0.00 0.00 0.00 0.00 0.00 0.00 0.00 0.00 0.00 0.00 0.00 0.00 0.00 0.00 0.00 0.00 0.00 0.00 0.00 0.00 0.00 0.00 0.00 0.00 0.00 0.00 0.00
0.00 0.00 0.00 0.00 0.00 0.00 0.00 0.00 0.00 0.00 0.00 0.00 0.00 0.00 0.00 0.00 0.00 0.00 0.00 0.00 0.00 0.00 0.00 0.00 0.00 0.00 0.00 0.00 0.00 0.00 0.00 0.00 0.00
0.00 0.00 0.00 0.00 0.00 0.00 0.00 0.00 0.00 0.00 0.00 0.00 0.00 0.00 0.00 0.00 0.00 0.00 0.00 0.00 0.00 0.00 0.00 0.00 0.00 0.00 0.00 0.00 0.00 0.00 0.00 0.00 0.00
0.00 0.00 0.00 0.00 0.00 0.00 0.00 0.00 0.00 0.00 0.00 0.00 0.00 0.00 0.00 0.00 0.00 0.00 0.00 0.00 0.00 0.00 0.00 0.00 0.00 0.00 0.00 0.00 0.00 0.00 0.00 0.00 0.00
0.00 0.00 0.00 0.00 0.00 0.00 0.00 0.00 0.00 0.00 0.00 0.00 0.00 0.00 0.00 0.00 0.00 0.00 0.00 0.00 0.00 0.00 0.00 0.00 0.00 0.00 0.00 0.01 0.02 0.01 0.00 0.00 0.00
0.00 0.00 0.00 0.00 0.00 0.00 0.00 0.00 0.00 0.00 0.00 0.00 0.00 0.00 0.00 0.00 0.00 0.00 0.00 0.00 0.00 0.00 0.00 0.00 0.00 0.00 0.01 0.02 0.04 0.04 0.03 0.01 0.00
0.00 0.00 0.00 0.00 0.00 0.00 0.00 0.00 0.00 0.00 0.00 0.00 0.00 0.00 0.00 0.00 0.00 0.00 0.00 0.00 0.00 0.00 0.00 0.00 0.00 0.00 0.00 0.01 0.03 0.05 0.05 0.04 0.03
0.00 0.00 0.00 0.00 0.00 0.00 0.00 0.00 0.00 0.00 0.00 0.00 0.00 0.00 0.00 0.00 0.00 0.00 0.00 0.00 0.00 0.00 0.00 0.01 0.01 0.00 0.00 0.00 0.01 0.02 0.04 0.05 0.06
0.00 0.00 0.00 0.00 0.00 0.00 0.00 0.00 0.00 0.00 0.00 0.00 0.00 0.00 0.00 0.00 0.00 0.00 0.00 0.00 0.00 0.00 0.00 0.00 0.00 0.00 0.01 0.02 0.03 0.03 0.03 0.03 0.04
0.00 0.00 0.00 0.00 0.00 0.00 0.00 0.00 0.00 0.00 0.00 0.00 0.00 0.00 0.00 0.00 0.00 0.00 0.00 0.00 0.00 0.00 0.00 0.00 0.00 0.00 0.02 0.02 0.02 0.02 0.02 0.03 0.03
0.00 0.00 0.00 0.00 0.00 0.00 0.00 0.00 0.00 0.00 0.00 0.00 0.00 0.00 0.00 0.00 0.00 0.00 0.00 0.00 0.00 0.00 0.00 0.00 0.00 0.00 0.00 0.00 0.01 0.01 0.01 0.02 0.02
0.00 0.00 0.00 0.00 0.00 0.00 0.00 0.00 0.00 0.00 0.00 0.00 0.00 0.00 0.00 0.00 0.00 0.00 0.00 0.00 0.00 0.00 0.00 0.00 0.00 0.00 0.00 0.00 0.00 0.00 0.00 0.00 0.00
0.00 0.00 0.00 0.00 0.00 0.00 0.00 0.00 0.00 0.00 0.00 0.00 0.00 0.00 0.00 0.00 0.00 0.00 0.00 0.00 0.00 0.00 0.00 0.00 0.00 0.00 0.00 0.00 0.00 0.00 0.00 0.00 0.00
0.00 0.00 0.00 0.00 0.00 0.00 0.00 0.00 0.00 0.00 0.00 0.00 0.00 0.00 0.00 0.00 0.00 0.00 0.00 0.00 0.00 0.00 0.00 0.00 0.00 0.00 0.00 0.00 0.00 0.00 0.00 0.00 0.00
0.00 0.00 0.00 0.00 0.00 0.00 0.00 0.00 0.00 0.00 0.00 0.00 0.00 0.00 0.00 0.00 0.00 0.00 0.00 0.00 0.00 0.00 0.00 0.00 0.00 0.00 0.00 0.00 0.00 0.00 0.00 0.00 0.00
MSLP
1012.76 1013.04 1013.37 1013.59 1013.67 1013.70 1013.75 1013.71 1013.66 1013.67 1013.63 1013.68 1013.54 1013.51 1013.36 1013.45 1013.32 1013.20 1013.07 1012.80 1012.85 1012.73 1012.88 1013.09 1013.07 1012.96 1012.95 1012.99 1013.06 1013.13 1013.18 1013.32 1013.52
1012.69 1013.00 1013.25 1013.39 1013.48 1013.56 1013.50 1013.43 1013.45 1013.43 1013.42 1013.36 1013.38 1013.27 1013.22 1013.27 1013.20 1013.07 1012.84 1012.75 1012.41 1012.41 1012.42 1012.61 1012.68 1012.63 1012.60 1012.70 1012.72 1012.73 1012.80 1012.97 1013.08
1012.74 1012.87 1013.13 1013.28 1013.23 1013.31 1013.31 1013.25 1013.20 1013.14 1013.14 1013.07 1013.10 1013.13 1013.16 1013.21 1013.09 1012.86 1012.61 1012.36 1012.09 1012.10 1012.22 1012.31 1012.34 1012.25 1012.27 1012.19 1012.26 1012.44 1012.50 1012.59 1012.70
1012.80 1012.83 1012.97 1013.08 1013.08 1013.07 1013.15 1013.15 1013.07 1012.96 1012.90 1012.88 1012.87 1012.92 1012.85 1012.95 1012.79 1012.53 1012.25 1011.98 1011.63 1011.64 1011.84 1011.99 1012.03 1011.95 1011.78 1011.83 1011.74 1011.86 1012.03 1012.14 1012.26
1012.87 1012.85 1012.94 1013.04 1013.05 1013.02 1013.02 1012.97 1012.84 1012.81 1012.73 1012.66 1012.58 1012.51 1012.52 1012.58 1012.30 1012.10 1011.82 1011.50 1011.31 1011.28 1011.46 1011.61 1011.65 1011.56 1011.45 1011.33 1011.30 1011.31 1011.37 1011.51 1011.65
1012.48 1012.66 1012.80 1012.94 1012.97 1012.93 1012.85 1012.78 1012.62 1012.50 1012.50 1012.34 1012.06 1012.00 1012.22 1012.01 1011.78 1011.55 1011.28 1011.06 1010.94 1010.98 1011.08 1011.20 1011.32 1011.30 1011.20 1011.12 1010.99 1010.86 1010.84 1010.83 1010.89
1012.22 1012.48 1012.51 1012.57 1012.62 1012.66 1012.60 1012.42 1012.23 1012.28 1012.17 1011.95 1011.56 1011.56 1011.60 1011.53 1011.32 1010.93 1010.72 1010.63 1010.63 1010.64 1010.69 1010.78 1010.87 1010.88 1010.73 1010.58 1010.52 1010.44 1010.34 1010.34 1010.29
1012.16 1012.26 1012.27 1012.40 1012.27 1012.38 1012.22 1012.08 1012.02 1011.90 1011.70 1011.35 1011.05 1011.05 1011.02 1010.82 1010.54 1010.36 1010.15 1010.06 1010.05 1010.00 1010.06 1010.15 1010.21 1010.19 1010.10 1010.01 1009.90 1009.80 1009.78 1009.75 1009.69
1011.93 1012.01 1011.95 1011.95 1011.90 1012.00 1011.85 1011.77 1011.48 1011.30 1011.10 1010.79 1010.68 1010.43 1010.32 1010.13 1009.96 1009.71 1009.62 1009.40 1009.38 1009.36 1009.42 1009.47 1009.51 1009.50 1009.35 1009.26 1009.19 1009.17 1009.13 1009.11 1009.07
1011.85 1011.96 1011.89 1011.71 1011.69 1011.72 1011.82 1011.67 1011.61 1011.44 1011.06 1010.77 1010.70 1010.56 1010.17 1009.86 1009.65 1009.42 1009.22 1009.02 1008.92 1008.78 1008.79 1008.74 1008.74 1008.69 1008.55 1008.55 1008.38 1008.25 1008.20 1008.23 1008.22
1012.13 1012.19 1012.11 1012.07 1011.89 1011.81 1011.79 1011.71 1011.66 1011.50 1011.28 1011.10 1010.86 1010.73 1010.41 1010.18 1009.86 1009.73 1009.34 1009.05 1008.69 1008.39 1008.23 1008.08 1007.98 1007.94 1007.85 1007.66 1007.50 1007.34 1007.31 1007.25 1007.10
1011.93 1012.39 1012.45 1012.26 1012.08 1012.08 1012.14 1012.03 1011.99 1011.90 1011.69 1011.47 1011.11 1010.85 1010.46 1010.15 1009.73 1009.46 1009.12 1008.77 1008.34 1007.93 1007.66 1007.47 1007.39 1007.24 1007.06 1006.87 1006.71 1006.51 1006.38 1006.38 1006.23
1012.10 1012.59 1012.82 1012.66 1012.61 1012.75 1012.85 1012.82 1012.74 1012.58 1012.41 1012.05 1011.54 1011.11 1010.81 1010.33 1009.89 1009.51 1009.22 1008.97 1008.77 1008.39 1008.07 1007.64 1007.26 1006.86 1006.49 1006.16 1005.95 1005.77 1005.62 1005.44 1005.29
1012.85 1013.28 1013.43 1013.15 1013.22 1013.40 1013.48 1013.40 1013.25 1013.18 1012.77 1012.26 1011.99 1011.67 1011.13 1010.71 1010.18 1009.96 1009.66 1009.28 1008.76 1008.37 1008.05 1007.79 1007.33 1007.03 1006.62 1006.14 1005.75 1005.49 1005.23 1004.99 1004.71
1013.62 1013.80 1013.92 1013.85 1013.89 1013.85 1013.81 1013.84 1013.70 1013.58 1013.45 1012.91 1012.47 1011.82 1011.19 1010.79 1010.67 1010.30 1009.84 1009.28 1008.86 1008.50 1008.18 1007.84 1007.55 1007.20 1006.90 1006.40 1005.95 1005.53 1005.10 1004.55 1004.03
1014.23 1014.38 1014.50 1014.35 1014.39 1014.42 1014.40 1014.39 1014.41 1014.10 1013.65 1013.24 1012.77 1011.85 1011.33 1010.90 1010.71 1010.43 1010.00 1009.53 1009.20 1008.87 1008.46 1008.16 1007.84 1007.38 1006.82 1006.42 1006.10 1005.56 1004.97 1004.31 1003.70
1014.61 1014.94 1014.91 1014.85 1014.79 1014.81 1014.83 1014.82 1014.84 1014.56 1014.08 1014.08 1013.34 1012.66 1011.95 1011.40 1011.50 1010.88 1010.27 1009.79 1009.47 1008.98 1008.59 1008.31 1007.84 1007.49 1007.11 1006.63 1006.02 1005.36 1004.61 1004.04 1003.55
1015.11 1015.14 1015.25 1015.28 1015.22 1015.32 1015.26 1015.19 1015.20 1015.02 1014.46 1014.28 1014.47 1013.74 1013.01 1012.06 1010.84 1010.81 1010.23 1009.80 1009.59 1009.24 1008.97 1008.51 1008.00 1007.61 1007.23 1006.62 1006.06 1005.35 1004.61 1004.00 1003.47
1015.48 1015.44 1015.48 1015.62 1015.60 1015.65 1015.63 1015.42 1015.31 1015.24 1015.22 1014.68 1014.36 1014.57 1014.08 1013.34 1011.06 1010.47 1010.61 1010.13 1009.72 1009.31 1008.95 1008.54 1008.09 1007.57 1007.13 1006.33 1005.74 1005.02 1004.71 1004.12 1003.70
1015.66 1015.61 1015.64 1015.77 1015.80 1015.80 1015.76 1015.65 1015.55 1015.41 1015.31 1015.08 1014.71 1014.43 1013.94 1013.65 1013.04 1010.49 1010.32 1010.26 1009.86 1009.27 1008.85 1008.36 1008.05 1007.58 1006.99 1006.48 1005.63 1005.01 1004.54 1003.97 1003.47
Thickness
5729 5727 5725 5723 5723 5722 5721 5721 5721 5720 5720 5719 5719 5719 5719 5717 5718 5720 5720 5721 5719 5719 5718 5715 5714 5714 5714 5713 5711 5710 5709 5707 5705
5727 5724 5722 5721 5720 5719 5719 5719 5718 5717 5716 5716 5715 5715 5715 5714 5715 5716 5717 5716 5717 5716 5715 5713 5712 5711 5711 5709 5708 5707 5706 5703 5702
5722 5721 5719 5717 5717 5716 5716 5715 5715 5714 5713 5712 5711 5711 5709 5709 5709 5711 5712 5713 5713 5712 5710 5708 5708 5707 5706 5706 5704 5702 5701 5699 5697
5717 5717 5715 5713 5713 5713 5711 5710 5710 5709 5709 5708 5707 5707 5707 5706 5706 5707 5708 5709 5710 5708 5706 5703 5702 5702 5702 5701 5700 5698 5696 5693 5691
5711 5711 5710 5708 5708 5707 5706 5705 5706 5706 5706 5706 5706 5706 5704 5704 5704 5704 5704 5704 5704 5703 5699 5697 5697 5696 5696 5696 5695 5694 5692 5689 5687
5710 5708 5706 5704 5703 5703 5703 5703 5703 5703 5702 5703 5704 5703 5700 5700 5700 5700 5699 5698 5696 5694 5692 5689 5688 5688 5688 5688 5688 5687 5686 5685 5684
5709 5705 5704 5703 5701 5700 5699 5699 5700 5698 5698 5698 5700 5699 5697 5696 5695 5696 5694 5691 5689 5687 5686 5683 5682 5682 5682 5682 5681 5681 5680 5679 5678
5706 5704 5703 5701 5700 5698 5697 5697 5696 5695 5695 5697 5697 5695 5694 5693 5693 5691 5690 5688 5686 5684 5682 5681 5679 5678 5677 5677 5677 5676 5675 5673 5673
5704 5701 5700 5699 5698 5695 5694 5692 5692 5692 5691 5692 5691 5691 5690 5690 5689 5689 5687 5687 5684 5682 5679 5677 5676 5675 5674 5673 5672 5671 5670 5669 5668
5698 5696 5695 5694 5692 5690 5687 5685 5684 5683 5683 5683 5682 5682 5683 5683 5683 5683 5683 5683 5681 5680 5676 5674 5672 5671 5671 5669 5668 5667 5665 5663 5662
5691 5689 5687 5685 5683 5681 5679 5678 5675 5674 5674 5674 5675 5673 5673 5672 5673 5671 5674 5673 5674 5674 5671 5670 5667 5666 5664 5664 5664 5663 5661 5660 5659
5686 5681 5678 5676 5674 5671 5668 5666 5664 5663 5663 5664 5665 5665 5665 5664 5665 5665 5664 5665 5667 5666 5665 5664 5662 5660 5658 5657 5657 5657 5654 5652 5651
5678 5673 5667 5665 5662 5658 5655 5653 5651 5650 5650 5651 5652 5653 5652 5654 5654 5653 5654 5652 5650 5650 5650 5650 5649 5649 5649 5649 5647 5646 5645 5644 5644
5666 5660 5655 5654 5651 5646 5643 5641 5640 5638 5639 5641 5640 5639 5640 5640 5641 5640 5639 5638 5638 5637 5636 5634 5635 5635 5634 5632 5632 5629 5629 5629 5630
5654 5649 5644 5642 5639 5636 5633 5629 5627 5624 5623 5626 5626 5629 5629 5628 5625 5625 5625 5625 5624 5622 5619 5618 5616 5614 5612 5612 5612 5610 5609 5609 5613
5641 5637 5634 5630 5627 5623 5620 5617 5613 5611 5610 5610 5613 5616 5616 5616 5613 5611 5609 5608 5606 5603 5601 5597 5594 5592 5592 5589 5585 5587 5588 5591 5592
5630 5625 5622 5618 5615 5611 5607 5604 5600 5598 5597 5592 5594 5594 5603 5601 5595 5594 5592 5590 5588 5586 5582 5578 5575 5571 5568 5565 5563 5563 5565 5568 5571
5619 5615 5611 5606 5603 5598 5595 5591 5588 5585 5583 5578 5568 5565 5568 5577 5586 5582 5578 5574 5570 5566 5560 5556 5552 5548 5544 5541 5539 5538 5539 5540 5541
5607 5604 5600 5596 5592 5587 5582 5580 5575 5570 5565 5563 5559 5548 5541 5538 5555 5561 5555 5551 5549 5544 5539 5534 5527 5522 5517 5517 5515 5513 5510 5508 5509
5597 5594 5591 5586 5580 5576 5571 5566 5560 5555 5549 5543 5539 5535 5531 5525 5521 5538 5532 5527 5522 5520 5514 5507 5500 5492 5486 5484 5483 5479 5476 5471 5470